| time (UTC) | temp F | wind direction | speed MPH | gust MPH | rain 1hr in | rain 24hr in | rain mn in | humidity % | barometer mb |
| 20260510213005 | 58 | 115 | 3.0 | 10.0 | 0.00 | 0.09 | 0.08 | 55 | 1030.8 |
| 20260510211505 | 57 | 132 | 3.0 | 8.0 | 0.00 | 0.09 | 0.08 | 61 | 1031.1 |
| 20260510210003 | 57 | 112 | 4.0 | 11.0 | 0.00 | 0.09 | 0.08 | 60 | 1031.2 |
| 20260510204503 | 56 | 111 | 4.0 | 9.0 | 0.00 | 0.09 | 0.08 | 60 | 1031.2 |
| 20260510203002 | 57 | 134 | 3.0 | 8.0 | 0.00 | 0.09 | 0.08 | 62 | 1031.2 |
| 20260510201501 | 57 | 132 | 3.0 | 11.0 | 0.00 | 0.09 | 0.08 | 60 | 1031.2 |
| 20260510200118 | 56 | 96 | 5.0 | 7.0 | 0.00 | 0.09 | 0.08 | 62 | 1031.3 |
| 20260510194614 | 56 | 117 | 2.0 | 7.0 | 0.00 | 0.09 | 0.08 | 61 | 1031.1 |
| 20260510193107 | 54 | 136 | 3.0 | 8.0 | 0.00 | 0.09 | 0.08 | 65 | 1031.3 |
| 20260510191602 | 53 | 113 | 4.0 | 7.0 | 0.00 | 0.09 | 0.08 | 68 | 1031.4 |
| 20260510190051 | 52 | 125 | 1.0 | 7.0 | 0.00 | 0.09 | 0.08 | 70 | 1031.4 |
| 20260510184551 | 52 | 110 | 3.0 | 9.0 | 0.00 | 0.09 | 0.08 | 69 | 1031.3 |
| 20260510183055 | 52 | 143 | 3.0 | 9.0 | 0.00 | 0.09 | 0.08 | 68 | 1031.3 |
| 20260510181547 | 51 | 120 | 1.0 | 4.0 | 0.00 | 0.09 | 0.08 | 70 | 1031.2 |
| 20260510180049 | 51 | 111 | 3.0 | 9.0 | 0.00 | 0.09 | 0.08 | 71 | 1031.1 |
| 20260510174545 | 50 | 146 | 1.0 | 10.0 | 0.00 | 0.09 | 0.08 | 74 | 1031.1 |
| 20260510173048 | 50 | 112 | 1.0 | 8.0 | 0.00 | 0.09 | 0.08 | 74 | 1031.0 |
| 20260510171543 | 49 | 118 | 0.0 | 5.0 | 0.00 | 0.09 | 0.08 | 76 | 1031.0 |
| 20260510170037 | 48 | 126 | 1.0 | 7.0 | 0.00 | 0.09 | 0.08 | 76 | 1030.9 |
| 20260510164544 | 49 | 112 | 0.0 | 7.0 | 0.00 | 0.09 | 0.08 | 76 | 1030.9 |
| 20260510163032 | 47 | 115 | 3.0 | 8.0 | 0.00 | 0.09 | 0.08 | 81 | 1030.7 |
| 20260510161530 | 46 | 128 | 2.0 | 8.0 | 0.00 | 0.09 | 0.08 | 81 | 1030.7 |
| 20260510160034 | 46 | 128 | 1.0 | 6.0 | 0.00 | 0.09 | 0.08 | 83 | 1030.6 |
| 20260510154527 | 46 | 119 | 2.0 | 8.0 | 0.00 | 0.09 | 0.08 | 84 | 1030.6 |
| 20260510153034 | 45 | 117 | 2.0 | 7.0 | 0.00 | 0.09 | 0.08 | 86 | 1030.6 |
| 20260510151525 | 45 | 98 | 1.0 | 5.0 | 0.00 | 0.09 | 0.08 | 88 | 1030.6 |
| 20260510150021 | 44 | 115 | 0.0 | 3.0 | 0.00 | 0.09 | 0.08 | 88 | 1030.5 |
| 20260510144527 | 43 | 118 | 0.0 | 2.0 | 0.00 | 0.09 | 0.08 | 90 | 1030.6 |
| 20260510143021 | 42 | 192 | 0.0 | 1.0 | 0.00 | 0.09 | 0.08 | 90 | 1030.5 |
| 20260510141515 | 42 | 194 | 0.0 | 1.0 | 0.00 | 0.09 | 0.08 | 91 | 1030.3 |
| 20260510140014 | 41 | 337 | 0.0 | 1.0 | 0.00 | 0.09 | 0.08 | 92 | 1030.2 |
| 20260510134512 | 41 | 336 | 0.0 | 0.0 | 0.00 | 0.09 | 0.08 | 93 | 1030.2 |
| 20260510133030 | 41 | 337 | 0.0 | 0.0 | 0.00 | 0.09 | 0.08 | 93 | 1030.1 |
| 20260510131511 | 40 | 337 | 0.0 | 0.0 | 0.00 | 0.09 | 0.08 | 93 | 1029.6 |
| 20260510130011 | 40 | 336 | 0.0 | 2.0 | 0.00 | 0.09 | 0.08 | 94 | 1029.3 |
| 20260510124510 | 40 | 301 | 0.0 | 2.0 | 0.00 | 0.09 | 0.08 | 94 | 1028.9 |
| 20260510123010 | 39 | 301 | 1.0 | 4.0 | 0.00 | 0.09 | 0.08 | 94 | 1028.7 |
| 20260510121508 | 38 | 142 | 0.0 | 2.0 | 0.00 | 0.09 | 0.08 | 93 | 1028.6 |
| 20260510120005 | 38 | 142 | 0.0 | 0.0 | 0.00 | 0.09 | 0.08 | 93 | 1028.2 |
| 20260510114504 | 39 | 142 | 0.0 | 0.0 | 0.00 | 0.09 | 0.08 | 93 | 1028.2 |
| 20260510113002 | 40 | 142 | 0.0 | 1.0 | 0.00 | 0.09 | 0.08 | 93 | 1028.3 |
| 20260510111602 | 40 | 143 | 0.0 | 3.0 | 0.00 | 0.09 | 0.08 | 93 | 1028.2 |
| 20260510110059 | 40 | 280 | 0.0 | 0.0 | 0.00 | 0.09 | 0.08 | 93 | 1028.2 |
| 20260510104558 | 40 | 280 | 0.0 | 0.0 | 0.00 | 0.09 | 0.08 | 93 | 1028.5 |
| 20260510103100 | 40 | 280 | 0.0 | 0.0 | 0.00 | 0.09 | 0.08 | 93 | 1028.5 |
| 20260510101556 | 40 | 280 | 0.0 | 0.0 | 0.00 | 0.09 | 0.08 | 92 | 1028.3 |
| 20260510100055 | 40 | 280 | 0.0 | 0.0 | 0.00 | 0.09 | 0.08 | 92 | 1028.0 |
| 20260510094555 | 40 | 280 | 0.0 | 1.0 | 0.00 | 0.09 | 0.08 | 92 | 1028.1 |
| 20260510093055 | 40 | 280 | 0.0 | 0.0 | 0.03 | 0.09 | 0.08 | 91 | 1027.9 |
| 20260510091558 | 40 | 280 | 0.0 | 0.0 | 0.05 | 0.09 | 0.08 | 91 | 1027.8 |
| 20260510090058 | 41 | 280 | 0.0 | 0.0 | 0.07 | 0.09 | 0.08 | 91 | 1027.7 |
| 20260510084552 | 41 | 280 | 0.0 | 1.0 | 0.08 | 0.09 | 0.08 | 91 | 1027.6 |
| 20260510083054 | 41 | 280 | 0.0 | 5.0 | 0.05 | 0.06 | 0.05 | 90 | 1027.5 |
| 20260510081550 | 41 | 155 | 0.0 | 5.0 | 0.03 | 0.04 | 0.03 | 89 | 1027.1 |
| 20260510080049 | 41 | 42 | 0.0 | 1.0 | 0.00 | 0.01 | 0.00 | 89 | 1027.3 |
| 20260510074544 | 42 | 42 | 0.0 | 1.0 | 0.00 | 0.01 | 0.00 | 89 | 1027.2 |
| 20260510073101 | 42 | 332 | 0.0 | 5.0 | 0.00 | 0.01 | 0.00 | 88 | 1027.1 |
| 20260510071544 | 42 | 338 | 0.0 | 4.0 | 0.00 | 0.01 | 0.00 | 88 | 1026.9 |
| 20260510070038 | 42 | 65 | 1.0 | 7.0 | 0.01 | 0.01 | 0.00 | 88 | 1026.8 |
| 20260510064547 | 42 | 323 | 2.0 | 5.0 | 0.01 | 0.01 | 0.01 | 89 | 1026.7 |
| 20260510063040 | 42 | 309 | 1.0 | 7.0 | 0.01 | 0.01 | 0.01 | 88 | 1026.5 |
| 20260510061534 | 42 | 339 | 3.0 | 6.0 | 0.01 | 0.01 | 0.01 | 87 | 1026.4 |
| 20260510060032 | 43 | 22 | 1.0 | 10.0 | 0.00 | 0.00 | 0.00 | 85 | 1026.6 |
| 20260510054529 | 44 | 36 | 2.0 | 11.0 | 0.00 | 0.00 | 0.00 | 82 | 1025.8 |
| 20260510053026 | 44 | 333 | 3.0 | 12.0 | 0.00 | 0.00 | 0.00 | 79 | 1026.4 |
| 20260510051530 | 44 | 294 | 2.0 | 10.0 | 0.00 | 0.00 | 0.00 | 79 | 1026.2 |
| 20260510050023 | 44 | 46 | 3.0 | 6.0 | 0.00 | 0.00 | 0.00 | 79 | 1026.1 |
| 20260510044523 | 45 | 43 | 3.0 | 14.0 | 0.00 | 0.00 | 0.00 | 77 | 1025.8 |
| 20260510043020 | 45 | 35 | 4.0 | 12.0 | 0.00 | 0.00 | 0.00 | 77 | 1025.6 |
| 20260510041518 | 45 | 335 | 3.0 | 15.0 | 0.00 | 0.00 | 0.00 | 76 | 1025.6 |
| 20260510040022 | 46 | 340 | 6.0 | 16.0 | 0.00 | 0.00 | 0.00 | 75 | 1024.9 |
| 20260510034515 | 46 | 333 | 8.0 | 20.0 | 0.00 | 0.00 | 0.00 | 73 | 1024.3 |
| 20260510033013 | 47 | 325 | 6.0 | 21.0 | 0.00 | 0.00 | 0.00 | 70 | 1023.5 |
| 20260510031516 | 49 | 303 | 4.0 | 19.0 | 0.00 | 0.00 | 0.00 | 66 | 1022.8 |
| 20260510030011 | 50 | 35 | 8.0 | 25.0 | 0.00 | 0.00 | 0.00 | 61 | 1022.1 |
| 20260510024507 | 53 | 309 | 8.0 | 15.0 | 0.00 | 0.00 | 0.00 | 54 | 1021.4 |
| 20260510023007 | 58 | 98 | 3.0 | 9.0 | 0.00 | 0.00 | 0.00 | 41 | 1020.6 |
| 20260510021509 | 58 | 287 | 0.0 | 3.0 | 0.00 | 0.00 | 0.00 | 37 | 1019.6 |
| 20260510020006 | 58 | 143 | 0.0 | 0.0 | 0.00 | 0.00 | 0.00 | 36 | 1019.4 |
| 20260510014507 | 59 | 142 | 0.0 | 0.0 | 0.00 | 0.00 | 0.00 | 36 | 1018.8 |
| 20260510013004 | 59 | 142 | 0.0 | 0.0 | 0.00 | 0.00 | 0.00 | 36 | 1018.7 |
| 20260510011504 | 60 | 142 | 0.0 | 1.0 | 0.00 | 0.00 | 0.00 | 34 | 1018.6 |
| 20260510010004 | 61 | 225 | 0.0 | 1.0 | 0.00 | 0.00 | 0.00 | 33 | 1018.7 |
| 20260510004503 | 62 | 144 | 0.0 | 2.0 | 0.00 | 0.00 | 0.00 | 32 | 1018.4 |
| 20260510003003 | 62 | 149 | 0.0 | 3.0 | 0.00 | 0.00 | 0.00 | 30 | 1018.2 |
| 20260510001502 | 62 | 113 | 0.0 | 1.0 | 0.00 | 0.00 | 0.00 | 28 | 1018.2 |
| 20260510000001 | 63 | 113 | 0.0 | 2.0 | 0.00 | 0.00 | 0.00 | 28 | 1018.1 |
| 20260509234501 | 63 | 128 | 0.0 | 4.0 | 0.00 | 0.00 | 0.00 | 29 | 1017.6 |
| 20260509233001 | 63 | 117 | 0.0 | 1.0 | 0.00 | 0.00 | 0.00 | 28 | 1018.2 |
| 20260509231600 | 63 | 117 | 0.0 | 2.0 | 0.00 | 0.00 | 0.00 | 28 | 1018.1 |
| 20260509230100 | 63 | 61 | 0.0 | 5.0 | 0.00 | 0.00 | 0.00 | 26 | 1018.0 |
| 20260509224604 | 64 | 31 | 0.0 | 2.0 | 0.00 | 0.00 | 0.00 | 26 | 1017.6 |
| 20260509223106 | 64 | 61 | 2.0 | 7.0 | 0.00 | 0.00 | 0.00 | 26 | 1017.5 |
| 20260509221607 | 65 | 59 | 1.0 | 6.0 | 0.00 | 0.00 | 0.00 | 24 | 1017.6 |
| 20260509220100 | 66 | 71 | 1.0 | 3.0 | 0.00 | 0.00 | 0.00 | 23 | 1017.6 |
| 20260509214607 | 68 | 146 | 0.0 | 5.0 | 0.00 | 0.00 | 0.00 | 23 | 1017.2 |